Powrót do katalogu

DMSP 5D-2 F13 DEB

AktywnySSO
NORAD 42315·DEBRIS·🇺🇸 United States

Wystrzelony Mar 24, 1995 z Vandenberg Space Force Base

Loading…

Następne Przeloty (najbliższe 24 godziny)

TLE

ŚwieżeSource: Space-Track

Epoka: Sep 14, 2026, 15:25 UTC

1 42315U 95015JH  26257.64269486  .00004717  00000-0  11220-2 0  9999
2 42315  98.5510 319.1051 0021336 256.6264 103.2553 14.54191553580865

Śledź DMSP 5D-2 F13 DEB w czasie rzeczywistym z AllMySat

Download on the App Store